User: anonymous   Login
Location: Beaurecueil
(43.5122°N, 5.5450°E)
Time: 10:20:06
(UTC+00:00)
Language:

Cosmos 1437 - Orbit

View from above orbital plane
View from above orbital plane
View from above satellite
View from above satellite

Ground track
Ground track

The orbit data is extracted from the following two-line orbital elements,

1 13770U 83003A   20336.87210668  .00023686  00000-0  21086-3 0  9999
2 13770  81.1569  18.9288 0003294  73.3690 286.7928 15.68318467 83138
Epoch (UTC): 01 December 2020 20:55:50
Eccentricity: 0.0003294
inclination: 81.1569°
perigee height: 361 km
apogee height: 366 km
right ascension of ascending node: 18.9288°
argument of perigee: 73.3690°
revolutions per day: 15.68318467
mean anomaly at epoch: 286.7928°
orbit number at epoch: 8313

The dashed part of the orbit path shows where the satellite is in the earth's shadow,  

DLR